カタログに戻る

WESTAR 2

運用中通信GEO
NORAD 7466·PAYLOAD·🇺🇸 United States

打ち上げ Oct 10, 1974 から Cape Canaveral Space Force Station

Loading…

TLE

最新Source: Space-Track

元期: Sep 14, 2026, 03:49 UTC

1 07466U 74075A   26257.15946380  .00000082  00000-0  00000-0 0  9994
2 07466   7.0654 299.1009 0004753 236.8708 295.0619  0.99845562138541

AllMySatでWESTAR 2をリアルタイム追跡

Download on the App Store